Flag for Germany Weather past 2 weeks in Öhringen, Baden-Württemberg, Germany

Now
42 °F

Drizzle. Low clouds.


Feels Like: 40 °F
Forecast: 44 / 52 °F
Wind: 3 mph from West

Location: Oehringen

Current Time: Dec 17, 2014 at 11:18:21 PM

Latest Report: Dec 17, 2014 at 10:00 PM


Visibility: 3 mi

Pressure: 29.92 "Hg

Humidity: 97%

Dew point: 41 °F

Location of ÖhringenLocation

Historic Weather in Öhringen — Graph

°F

Öhringen temperature yesterday

Maximum temperature yesterday: 43 °F (at 7:00 PM)
Minimum temperature yesterday: 40 °F (at 12:00 AM)
Average temperature yesterday: 41 °F

Past Weeks' High & Low Weather Summary

 TemperatureHumidityPressure
High52 °F (Dec 13, 11:00 AM)100% (Dec 15, 4:00 AM)30.47 "Hg (Dec 15, 4:00 AM)
Low27 °F (Dec 9, 6:00 AM)57% (Dec 13, 10:00 AM)29.72 "Hg (Dec 12, 6:00 PM)
Average40 °F88%30.07 "Hg
* Reported Dec 2 10:00 PM — Dec 17 10:00 PM, Öhringen, Weather by CustomWeather, © 2014

Note: Actual official high and low records may vary slightly from our data, if they occured in-between our weather recording intervals... More about our weather records

Advertising

Öhringen weather history for previous 24 hours

 ConditionsComfort  
Time TempWeatherWind HumidityBarometerVisibility
10:00 PM
Dec 17
42 °FDrizzle. Low clouds.3 mph97%29.92 "Hg3 mi
9:00 PM41 °FDrizzle. Low clouds.5 mph98%29.90 "Hg2 mi
8:00 PM40 °FLow clouds.5 mph98%29.88 "Hg1 mi
7:00 PM40 °FDrizzle. Low clouds.3 mph98%29.86 "Hg2 mi
6:00 PM39 °FDrizzle. Low clouds.5 mph98%29.84 "Hg2 mi
5:00 PM39 °FDrizzle. Overcast.3 mph96%29.83 "Hg2 mi
4:00 PM39 °FLight rain. Overcast.5 mph91%29.81 "Hg4 mi
3:00 PM39 °FLight rain. Overcast.3 mph93%29.80 "Hg3 mi
2:00 PM39 °FLight rain. Overcast.5 mph86%29.81 "Hg4 mi
1:00 PM42 °FLight rain. Overcast.6 mph74%29.83 "Hg12 mi
12:00 PM41 °FLight rain. Overcast.5 mph74%29.87 "Hg16 mi
11:00 AM40 °FOvercast.5 mph77%29.90 "Hg14 mi
10:00 AM37 °FOvercast.2 mph86%29.94 "Hg11 mi
9:00 AM35 °FOvercast.2 mph90%29.96 "Hg9 mi
8:00 AM34 °FOvercast.1 mph93%29.99 "Hg8 mi
7:00 AM34 °FOvercast.2 mph93%30.00 "Hg7 mi
6:00 AM35 °FPassing clouds.1 mph93%30.01 "Hg7 mi
5:00 AM35 °FOvercast.1 mph95%30.02 "Hg7 mi
4:00 AM35 °FFog.2 mph96%30.03 "Hg4 mi
3:00 AM35 °FOvercast.2 mph97%30.03 "Hg5 mi
2:00 AM35 °FFog.2 mph97%30.03 "Hg4 mi
1:00 AM36 °FClear.2 mph95%30.03 "Hg6 mi
12:00 AM38 °FClear.3 mph95%30.03 "Hg6 mi
11:00 PM
Dec 16
40 °FOvercast.2 mph93%30.01 "Hg7 mi
Weather by CustomWeather, © 2014

See weather overviewHow to use our weather pages